Regional Weather Roundup
Issued by NWS New Orleans/Baton Rouge, LA

Home | Current Version | Previous Version | Graphics & Text | Print | Product List | Glossary On
Versions: 1 2 3 4 5 6 7 8 9 10 11 12 13 14 15 16 17 18 19 20 21 22 23 24 25 26 27 28 29 30 31 32 33 34 35 36 37 38 39 40 41 42 43 44 45 46 47 48 49 50
269
ASUS44 KLIX 200601
RWRLIX
NEW ORLEANS REGIONAL WEATHER ROUNDUP
NATIONAL WEATHER SERVICE NEW ORLEANS LA
100 AM CDT MON OCT 20 2014

NOTE: "FAIR" INDICATES FEW OR NO CLOUDS BELOW 12,000 FEET WITH NO
      SIGNIFICANT WEATHER AND/OR OBSTRUCTIONS TO VISIBILITY.
      SKY/WX - SKY CONDITION AND SIGNIFICANT WEATHER.
      TMP - AIR TEMPERATURE.     DP    - DEWPOINT TEMPERATURE.
      RH  - RELATIVE HUMIDITY.   PRES  - PRESSURE.
      HI  - HEAT INDEX.          WCI   - WIND CHILL INDEX.

*  THESE STATIONS ARE NOT NWS OR FAA STATIONS AND ARE NOT UNDER
   NWS QUALITY CONTROL.

LAZ038-040-048-061>063-065>067-069-200700-
SOUTHEAST LOUISIANA

CITY           SKY/WX    TMP DP  RH WIND       PRES   REMARKS
N.O. AUDUBON     N/A     64  59  83 MISG        N/A
6HR MIN TEMP:  62; 6HR MAX TEMP:  72;

N.O. INTL ARPT CLEAR     61  56  83 E5        30.05F
6HR MIN TEMP:  60; 6HR MAX TEMP:  71;

N.O. LAKEFRONT CLEAR     66  58  75 E5        30.06F
6HR MIN TEMP:  65; 6HR MAX TEMP:  70;

N.O. DOWNTOWN*   N/A     68  55  64 CALM      30.06F
6HR MIN TEMP:  68; 6HR MAX TEMP:  72;

SLIDELL        CLEAR     53  50  89 CALM      30.06S
6HR MIN TEMP:  53; 6HR MAX TEMP:  64;

BATON ROUGE    CLEAR     55  53  93 NE3       30.06F
6HR MIN TEMP:  55; 6HR MAX TEMP:  66;

BOOTHVILLE     CLEAR     71  59  65 E5        30.05F
6HR MIN TEMP:  71; 6HR MAX TEMP:  72;

BELLE CHASSE   CLEAR     57  53  86 CALM      30.05F
6HR MIN TEMP:  57; 6HR MAX TEMP:  64;

BOGALUSA*        N/A     50  47  88 CALM      30.08F
6HR MIN TEMP:  50; 6HR MAX TEMP:  62;

NEW ROADS*       N/A     55  53  96 CALM      30.06F
6HR MIN TEMP:  55; 6HR MAX TEMP:  66;

GONZALES*        N/A     57  57 100 CALM      30.05F
6HR MIN TEMP:  57; 6HR MAX TEMP:  65;

HAMMOND*       NOT AVBL
HOUMA*         CLEAR     60  59  98 NE3       30.05F FOG
6HR MIN TEMP:  60; 6HR MAX TEMP:  69;

PORT FOURCHON* CLEAR     72  63  73 NE8       30.07F

$$

MSZ070-080>082-200700-
SOUTHERN MISSISSIPPI

CITY           SKY/WX    TMP DP  RH WIND       PRES   REMARKS
MCCOMB         CLEAR     52  47  83 CALM      30.07F
6HR MIN TEMP:  51; 6HR MAX TEMP:  63;

GULFPORT       CLEAR     56  53  90 CALM      30.06S
6HR MIN TEMP:  56; 6HR MAX TEMP:  65;

BILOXI         CLEAR     60  51  73 N3        30.06F
6HR MIN TEMP:  57; 6HR MAX TEMP:  68;

PASCAGOULA     CLEAR     49  48  97 CALM      30.06S
6HR MIN TEMP:  47; 6HR MAX TEMP:  59;


$$

COASTAL OBSERVATIONS
LAKE AND NEARSHORE STATIONS

STATION/POSITION TIME  TEMP    WIND        PRES    WAVE
                       AIR SEA DIR/SP/G            HT/PER
                 (UTC) (F)     (DEG/KT/KT) (MB)    (FT/S)
PASCAGOULA       0500   59      30/  3/  4 1017.3
WAVELAND YACHT   0500   64      20/  5/  6 1017.1
GRAND ISLE       0500   72 78   80/  7/ 11 1018.0
SOUTHWEST PASS   0500   73 84              1017.6
NEW CANAL        0500   65 72   CALM  /  1 1018.3
SHELL BEACH      0500   70 70   90/  6/  7 1017.6

OFFSHORE STATIONS

STATION/POSITION TIME  TEMP    WIND        PRES    WAVE
                       AIR SEA DIR/SP/G            HT/PER
                 (UTC) (F)     (DEG/KT/KT) (MB)    (FT/S)
64 S DAUPHIN ISL 0529   73 79   80/ 10/ 14 1017.8    3/ 6

$$




USA.gov is the U.S. government's official web portal to all federal, state and local government web resources and services.